[[{"header":{"parameterUnit":"m.s-1","parameterCategory":1,"la1":30.2991,"la2":30.254,"lo1":-89.0895,"lo2":-89.0444,"dy":0.0017,"dx":0.0017,"nx":28,"ny":28,"refTime":"2023-08-18T03:00:00:Z","depth":0,"parameterNumber":2,"parameterNumberName":"U-component_of_WINDS"},"data":[0,0,0,0,0,0,0,0,0,0,0,0,0,0,0,0,0,0,0,0,0,0,0,0,0,0,0,0,0,0,0,0,0,0,0,0,0,0,0,0,0,0,0,0,0,0,0,0,0,0,0,0,0,0,0,0,0,0,0.8942,0.8942,0,0.8953,0.8953,0.8953,0.8891,0.8889,0.8888,0.8886,0.8902,0.8904,0.8906,0,0,0,0,0,0,0,0,0,0,0,0,0,0.8872,0.8873,0.8942,0.8942,0.8942,0.8953,0.8953,0.8953,0.8891,0.8889,0.8887,0.8885,0.8901,0.8904,0.8906,0,0,0,0,0,0,0,0,0,0,0,0,0,0.8895,0.8874,0.8942,0.8912,0.891,0.8953,0.8953,0.8953,0.8892,0.8889,0.8887,0.8884,0.89,0.8903,0.8906,0.898,0,0,0.8916,0.8917,0,0,0,0,0,0,0,0,0.8893,0.8897,0.8917,0.8914,0.8912,0.8918,0.8934,0.8962,0.8893,0.8899,0.8886,0.8883,0.891,0.8912,0.892,0.898,0.8981,0.8916,0.8918,0.892,0.892,0,0,0,0,0,0,0,0.8892,0.8896,0.8946,0.8917,0.8914,0.89,0.8901,0.8939,0.8919,0.8898,0.8894,0.8896,0.8908,0.8917,0.892,0.8981,0.8916,0.8919,0.8921,0.8922,0.9105,0.9108,0,0,0,0,0,0,0.8893,0.8895,0.8946,0.8947,0.8896,0.8904,0.8904,0.8919,0.8919,0.8916,0.8898,0.8893,0.8913,0.8916,0.892,0.9007,0.892,0.8922,0.8924,0.9102,0.9105,0.9109,0,0,0,0,0,0,0.8892,0.8899,0.8945,0.892,0.8925,0.8908,0.8925,0.892,0.8929,0.8918,0.8915,0.8911,0.8911,0.8916,0.8966,0.9007,0.8924,0.8927,0.9098,0.9103,0.9107,0.9181,0,0,0,0,0,0,0.889,0.8898,0.8925,0.8921,0.8926,0.8989,0.8927,0.8922,0.8935,0.8928,0.893,0.8927,0.8909,0.8961,0.8969,0.901,0.8929,0.9095,0.91,0.9106,0.9175,0.9187,0.9198,0,0,0,0,0,0.8888,0.8946,0.8926,0.8933,0.8959,0.8992,0.8995,0.8972,0.8938,0.8965,0.8959,0.8927,0.9001,0.8967,0.8975,0.9017,0.9092,0.9099,0.9105,0.917,0.9185,0.9198,0,0,0,0,0,0,0.8956,0.8944,0.8923,0.8981,0.8988,0.8981,0.9014,0.8989,0.9006,0.8999,0.8971,0.8972,0.9027,0.9027,0.8989,0.9089,0.9041,0.9049,0.9087,0.9102,0.9113,0.9112,0.8932,0,0,0,0,0,0.8977,0.9004,0.8993,0.9045,0.9049,0.9032,0.9045,0.9027,0.9033,0.9036,0.9033,0.9042,0.9067,0.9084,0.9107,0.9175,0.9175,0.9208,0.922,0.9229,0.9237,0.9275,0.929,0.9131,0.913,0.913,0,0,0.9022,0.9019,0.9038,0.9058,0.9061,0.9091,0.9034,0.9068,0.909,0.9042,0.9088,0.9087,0.9095,0.9154,0.918,0.9156,0.9281,0.9238,0.9246,0.9248,0.9283,0.9298,0.9312,0.9135,0.9134,0.9134,0,0,0.9119,0.9119,0.9163,0.9167,0.9173,0.9161,0.9171,0.9169,0.9166,0.9212,0.9177,0.9204,0.9248,0.9255,0.9265,0.9367,0.9339,0.9375,0.9437,0.9474,0.9486,0.9497,0.9535,0.9548,0.9383,0.9383,0.9384,0,0.9175,0.9216,0.9189,0.9225,0.9236,0.9193,0.9239,0.9245,0.9258,0.9267,0.9239,0.9294,0.9296,0.9358,0.9383,0.9392,0.9405,0.9375,0.9486,0.9497,0.9507,0.9542,0.9556,0.9388,0.9387,0.9387,0.9386,0,0.9285,0.9315,0.935,0.9363,0.9378,0.9418,0.9399,0.9418,0.9399,0.9391,0.944,0.9441,0.9464,0.9477,0.9459,0.9537,0.9522,0.9491,0.9441,0.9527,0.956,0.9573,0.9394,0.9392,0.9391,0.939,0,0,0.9424,0.9422,0.9436,0.9441,0.9445,0.9468,0.9508,0.9529,0.9546,0.9558,0.9591,0.963,0.9602,0.9613,0.9595,0.9628,0.971,0.9593,0.9593,0.9615,0.9798,0.9821,0.9837,0.9692,0.9695,0.9696,0.9797,0,0.952,0.9586,0.9563,0.9631,0.966,0.962,0.9655,0.9662,0.9656,0.968,0.9674,0.9702,0.9662,0.9669,0.9699,0.9694,0.9747,0.9686,0.9725,0.9726,0.9724,0.9854,0.9879,0.9974,0.981,0.9812,0.9814,0,0.964,0.9655,0.9725,0.9725,0.9736,0.9768,0.9786,0.9809,0.9818,0.9811,0.9824,0.9801,0.9842,0.9792,0.985,0.9809,0.9824,0.9824,0.9827,0.983,0.9775,0.9862,1.0004,1.0019,0.9834,0.9832,0.9831,0,0.9736,0.9774,0.9821,0.9827,0.9828,0.9851,0.9853,0.9858,0.9873,0.989,0.99,0.9922,0.9934,0.9952,0.9936,0.9902,0.9997,0.9946,0.9994,0.9994,1.0015,1.0014,1.0163,1.0024,1.0024,1.0024,1.0024,0,0.9845,0.989,0.9864,0.9893,0.9943,0.9918,0.9969,0.9967,0.9972,1.0001,0.9969,0.9998,0.9974,1.0002,0.9989,1.004,1.0045,1.0042,1.0039,1.0045,1.0046,1.0055,1.0048,1.0028,1.0027,1.0026,1.0025,0,0.996,0.9944,0.9994,0.9991,0.9991,1.0028,1.0026,1.0054,1.0046,1.0084,1.0092,1.008,1.011,1.0096,1.0128,1.012,1.0185,1.0172,1.0182,1.0178,1.0228,1.0224,1.0387,1.0408,1.0256,1.0257,1.0258,0,1.0031,1.0065,1.0065,1.0082,1.0086,1.0114,1.0128,1.0106,1.0123,1.0135,1.0163,1.019,1.0211,1.0262,1.0257,1.0282,1.027,1.0326,1.0274,1.028,1.0272,1.0271,1.0275,1.0337,1.0338,1.034,1.0341,0,1.0159,1.015,1.0172,1.0192,1.021,1.0225,1.0237,1.0253,1.0231,1.0253,1.0283,1.0299,1.0332,1.036,1.0383,1.0386,1.0361,1.0357,1.037,1.0377,1.0382,1.0381,1.0211,1.0354,1.0352,1.0352,1.0351,1.035,1.0255,1.0284,1.0289,1.0315,1.0322,1.0334,1.036,1.0356,1.038,1.0404,1.039,1.0426,1.0435,1.0462,1.0469,1.0498,1.0476,1.0495,1.0499,1.0504,1.0511,1.0377,1.0502,1.0502,1.0502,1.0501,1.0501,0,1.0383,1.0384,1.0408,1.0426,1.0447,1.042,1.0432,1.0452,1.0484,1.0494,1.0515,1.0551,1.0579,1.0576,1.0602,1.0626,1.0615,1.0634,1.0632,1.0634,1.0529,1.0515,1.0642,1.0642,1.0642,1.0642,1.0642,1.0642,1.0451,1.0498,1.049,1.0542,1.0543,1.0577,1.0587,1.0599,1.0607,1.0648,1.067,1.0668,1.0674,1.07,1.0725,1.0724,1.0735,1.0758,1.0753,1.0655,1.0641,1.0628,1.0615,1.0761,1.0761,1.0856,1.0857,1.0857]},{"header":{"parameterUnit":"m.s-1","parameterCategory":1,"la1":30.2991,"la2":30.254,"lo1":-89.0895,"lo2":-89.0444,"dy":0.0017,"dx":0.0017,"nx":28,"ny":28,"refTime":"2023-08-18T03:00:00:Z","depth":0,"parameterNumber":3,"parameterNumberName":"V-component_of_WINDS"},"data":[0,0,0,0,0,0,0,0,0,0,0,0,0,0,0,0,0,0,0,0,0,0,0,0,0,0,0,0,0,0,0,0,0,0,0,0,0,0,0,0,0,0,0,0,0,0,0,0,0,0,0,0,0,0,0,0,0,0,1.8671,1.8672,0,1.868,1.868,1.868,1.8661,1.866,1.866,1.8659,1.8664,1.8665,1.8666,0,0,0,0,0,0,0,0,0,0,0,0,0,1.8634,1.8635,1.8671,1.8672,1.8672,1.868,1.868,1.868,1.8661,1.866,1.8659,1.8659,1.8664,1.8665,1.8666,0,0,0,0,0,0,0,0,0,0,0,0,0,1.8647,1.8635,1.8671,1.8663,1.8663,1.868,1.868,1.868,1.8661,1.866,1.8659,1.8658,1.8664,1.8665,1.8666,1.869,0,0,1.8669,1.8669,0,0,0,0,0,0,0,0,1.8646,1.8648,1.8664,1.8664,1.8663,1.8668,1.8668,1.8683,1.8661,1.8662,1.8659,1.8658,1.8666,1.8667,1.867,1.869,1.869,1.8669,1.867,1.867,1.867,0,0,0,0,0,0,0,1.8645,1.8648,1.8675,1.8665,1.8664,1.8657,1.8658,1.8671,1.8669,1.8661,1.866,1.8662,1.8666,1.8669,1.867,1.869,1.8669,1.867,1.8671,1.8671,1.8726,1.8726,0,0,0,0,0,0,1.8646,1.8647,1.8674,1.8675,1.8652,1.8659,1.866,1.8668,1.8668,1.8668,1.8662,1.8661,1.8668,1.8669,1.867,1.8696,1.867,1.8671,1.8672,1.8725,1.8726,1.8727,0,0,0,0,0,0,1.8645,1.8649,1.8674,1.8661,1.8663,1.866,1.8669,1.8668,1.8672,1.8669,1.8668,1.8667,1.8667,1.8669,1.8684,1.8696,1.8671,1.8672,1.8724,1.8725,1.8726,1.8748,0,0,0,0,0,0,1.8644,1.8649,1.866,1.8661,1.8664,1.869,1.867,1.8669,1.8674,1.8672,1.8673,1.8672,1.8667,1.8683,1.8685,1.8697,1.8673,1.8723,1.8724,1.8726,1.8746,1.875,1.8753,0,0,0,0,0,1.8643,1.8666,1.866,1.8664,1.8678,1.8691,1.8692,1.8686,1.8675,1.8685,1.8682,1.8672,1.8694,1.8685,1.8687,1.8699,1.8722,1.8724,1.8726,1.8745,1.8749,1.8753,0,0,0,0,0,0,1.8666,1.8666,1.866,1.8684,1.8687,1.8687,1.87,1.8692,1.8697,1.8695,1.8686,1.8686,1.8703,1.8702,1.8692,1.872,1.8706,1.8708,1.872,1.8724,1.8727,1.8726,1.8674,0,0,0,0,0,1.8673,1.8685,1.8684,1.8705,1.8707,1.8703,1.8708,1.8703,1.8706,1.8707,1.8706,1.8708,1.8714,1.8719,1.8726,1.8746,1.8744,1.8755,1.8759,1.8761,1.8763,1.877,1.8774,1.8733,1.8733,1.8733,0,0,1.8689,1.8691,1.8699,1.871,1.8712,1.8722,1.8704,1.8717,1.8723,1.8709,1.8723,1.8721,1.8723,1.874,1.8747,1.874,1.8774,1.8764,1.8766,1.8766,1.8772,1.8776,1.878,1.8734,1.8734,1.8734,0,0,1.8723,1.8727,1.8743,1.8745,1.8748,1.8745,1.8748,1.8749,1.8747,1.8762,1.8749,1.8756,1.8769,1.8769,1.8771,1.8801,1.8791,1.8803,1.882,1.8827,1.8831,1.8833,1.8841,1.8844,1.8805,1.8805,1.8805,0,1.8743,1.8759,1.8752,1.8764,1.8768,1.8755,1.8769,1.8771,1.8776,1.8777,1.8769,1.8783,1.8783,1.8798,1.8805,1.8808,1.881,1.8803,1.8831,1.8834,1.8836,1.8843,1.8847,1.8807,1.8807,1.8806,1.8806,0,1.878,1.8791,1.8804,1.8808,1.8813,1.8826,1.8819,1.8825,1.8818,1.8815,1.8827,1.8826,1.883,1.8834,1.8828,1.8847,1.8842,1.8833,1.8818,1.8841,1.8848,1.8851,1.8809,1.8808,1.8808,1.8807,0,0,1.883,1.8828,1.8833,1.8833,1.8834,1.8841,1.8852,1.8856,1.886,1.8863,1.887,1.8879,1.8869,1.8871,1.8865,1.8871,1.8891,1.8861,1.886,1.8864,1.8908,1.8914,1.8917,1.8885,1.8885,1.8886,1.8907,0,1.8861,1.8881,1.8873,1.8893,1.8901,1.8887,1.8896,1.8896,1.8892,1.8897,1.8892,1.8898,1.8886,1.8887,1.8893,1.8887,1.8899,1.8886,1.8889,1.8889,1.8887,1.8921,1.8928,1.8949,1.891,1.891,1.8911,0,1.89,1.8904,1.8924,1.892,1.8923,1.8931,1.8933,1.8938,1.8937,1.8933,1.8934,1.8925,1.8933,1.8919,1.8928,1.8919,1.8919,1.8916,1.8917,1.8916,1.89,1.8919,1.8955,1.8958,1.8915,1.8915,1.8914,0,1.893,1.894,1.8952,1.8953,1.895,1.8956,1.8954,1.8952,1.8954,1.8955,1.8955,1.8957,1.8957,1.8958,1.8948,1.894,1.8957,1.8943,1.8952,1.8952,1.8956,1.8956,1.8991,1.8959,1.8959,1.8959,1.8959,0,1.8964,1.8977,1.8965,1.8973,1.8985,1.8975,1.8987,1.8984,1.8981,1.8986,1.8974,1.8978,1.8967,1.8969,1.8962,1.8968,1.8969,1.8965,1.8962,1.8965,1.8965,1.8964,1.8962,1.896,1.896,1.896,1.8959,0,1.9,1.8994,1.9005,1.9,1.8999,1.9008,1.9003,1.9008,1.9003,1.9008,1.9009,1.9,1.9002,1.8993,1.8994,1.8988,1.8998,1.8994,1.8998,1.8996,1.9005,1.9003,1.904,1.9043,1.9011,1.9011,1.9011,0,1.9021,1.903,1.9025,1.9028,1.9027,1.9032,1.9033,1.9023,1.9024,1.9022,1.9026,1.9027,1.9028,1.9031,1.9023,1.9022,1.9017,1.903,1.9017,1.9018,1.9014,1.9013,1.9013,1.9032,1.9032,1.9033,1.9033,0,1.9059,1.9054,1.9058,1.9058,1.906,1.9061,1.906,1.9062,1.9051,1.9053,1.9055,1.9055,1.9055,1.9055,1.9052,1.9048,1.9038,1.9037,1.9039,1.9041,1.9042,1.9039,1.9003,1.9036,1.9036,1.9036,1.9036,1.9035,1.9086,1.9092,1.9089,1.9091,1.909,1.9088,1.9092,1.9087,1.9088,1.9088,1.9081,1.9083,1.9078,1.9074,1.9071,1.9071,1.9065,1.9068,1.9068,1.9069,1.9069,1.9043,1.9071,1.9071,1.907,1.907,1.907,0,1.9121,1.9117,1.912,1.9119,1.912,1.9111,1.9109,1.911,1.9113,1.9109,1.9109,1.9109,1.9109,1.91,1.9098,1.91,1.9095,1.9099,1.9098,1.9097,1.9076,1.9074,1.9103,1.9103,1.9103,1.9103,1.9103,1.9103,1.9139,1.9147,1.9142,1.9148,1.9144,1.9146,1.9145,1.9143,1.914,1.9141,1.9141,1.9136,1.9129,1.9126,1.9124,1.9121,1.912,1.9126,1.9121,1.9102,1.9099,1.9096,1.9093,1.9126,1.9126,1.9142,1.9142,1.9142]}]]